This is the latest recevied weather packets stored in our database for station/object W1HS. If no packets are shown the sender has not sent any weather packets the latest 10 day(s).
| Time | Temp. | Humidity | Pressure | Rain* | Wind** | Luminosity | Snow |
|---|---|---|---|---|---|---|---|
| 1777702698 | 5.56° C | 90% | 992.2 hPa | 2.03 mm | - | 0 W/m² | - |
| 1777702098 | 5.56° C | 89% | 992.6 hPa | 1.78 mm | - | 0 W/m² | - |
| 1777701498 | 5.56° C | 88% | 992.8 hPa | 1.52 mm | - | 0 W/m² | - |
| 1777700898 | 5.56° C | 87% | 992.6 hPa | 0.76 mm | - | 0 W/m² | - |
| 1777700298 | 6.11° C | 85% | 992.6 hPa | 0.51 mm | - | 0 W/m² | - |
| 1777699698 | 6.11° C | 82% | 992.3 hPa | 0.25 mm | - | 0 W/m² | - |
| 1777699098 | 6.67° C | 77% | 992.3 hPa | 0 mm | - | 0 W/m² | - |
| 1777698498 | 6.67° C | 76% | 992.1 hPa | 0 mm | - | 0 W/m² | - |
| 1777697898 | 7.22° C | 73% | 992.2 hPa | 0 mm | - | 0 W/m² | - |
| 1777697300 | 7.78° C | 68% | 992 hPa | 0 mm | - | 0 W/m² | - |
| 1777696698 | 7.78° C | 66% | 991.8 hPa | 0 mm | - | 0 W/m² | - |
| 1777696100 | 8.33° C | 63% | 991.9 hPa | 0 mm | - | 0 W/m² | - |
| 1777695500 | 8.33° C | 61% | 991.7 hPa | 0 mm | - | 0 W/m² | - |
| 1777694898 | 8.33° C | 64% | 991.8 hPa | 0 mm | - | 0 W/m² | - |
| 1777694299 | 8.33° C | 59% | 991.5 hPa | 0 mm | - | 0 W/m² | - |
| 1777693698 | 8.33° C | 55% | 991.5 hPa | 0 mm | - | 0 W/m² | - |
| 1777693099 | 8.89° C | 55% | 991.4 hPa | 0 mm | - | 0 W/m² | - |
| 1777692498 | 8.89° C | 55% | 991.3 hPa | 0 mm | - | 0 W/m² | - |
| 1777691898 | 8.89° C | 54% | 991.4 hPa | 0 mm | - | 0 W/m² | - |
| 1777691298 | 8.89° C | 55% | 991.5 hPa | 0 mm | - | 0 W/m² | - |
| 1777690698 | 8.33° C | 51% | 991.3 hPa | 0 mm | - | 0 W/m² | - |
| 1777690098 | 8.89° C | 52% | 991.4 hPa | 0 mm | - | 0 W/m² | - |
| 1777689498 | 8.89° C | 51% | 991.5 hPa | 0 mm | - | 0 W/m² | - |
| 1777688898 | 8.89° C | 49% | 991.4 hPa | 0 mm | - | 0 W/m² | - |
| 1777688298 | 8.89° C | 49% | 991.3 hPa | 0 mm | - | 0 W/m² | - |
* Rain latest hour (hover to see other rain measurements)
** Current wind speed in m/s (hover to see current wind gust speed)